Starlink 4477

operational
NORAD ID: 53546 Int'l Des: 2022-101 Owner: SPXS Country: US Constellation: starlink
LEOCIRCULAR

Starlink 4477について

説明を読み込み中...

リアルタイム位置

3D地球を読み込み中...

次回通過

高度履歴

Altitude vs Time

uPlot chart will show altitude changes over time

軌道要素

1 53546U 22101V 25304.13846853 .00000045 00000-0 20898-4 0 9991
2 53546 53.2188 275.2280 0001645 102.0405 258.0772 15.08840680176898
Epoch: Oct 31, 2025 • Age: 7 hours

現在のステータス

高度 550.1 km
速度 7.59 km/s
衛星直下点 -31.85°S, 78.49°W
打ち上げ日 Aug 19, 2022
運用期間 3.1 years
タイプ internet

技術仕様

分類 Payload
質量 300.00 kg
乾燥質量 290.00 kg
総質量 300.00 kg
長さ 0.20 m
直径 2.80 m
スパン 9.00 m
形状 Box + pan
製造者 SPXS
バスタイプ Starlink
フェーズステータス In Orbit
所有者/国 SPXS/US

大規模コンステレーション

Loading constellations...